| time (UTC) | temp F | wind direction | speed knots | gust knots | rain 1hr in | rain 24hr in | rain mn in | humidity % | barometer mb |
| 20260506051058 | 50 | 84 | 8.7 | 13.9 | 0.00 | 0.00 | 0.00 | 61 | 1010.4 |
| 20260506050558 | 51 | 120 | 9.6 | 13.9 | 0.00 | 0.00 | 0.00 | 61 | 1010.3 |
| 20260506044558 | 51 | 103 | 8.7 | 13.9 | 0.00 | 0.00 | 0.00 | 59 | 1010.3 |
| 20260506044056 | 51 | 113 | 7.8 | 12.2 | 0.00 | 0.00 | 0.00 | 59 | 1010.3 |
| 20260506043552 | 51 | 108 | 8.7 | 13.0 | 0.00 | 0.00 | 0.00 | 58 | 1010.3 |
| 20260506043050 | 51 | 80 | 8.7 | 14.8 | 0.00 | 0.00 | 0.00 | 58 | 1010.3 |
| 20260506042550 | 51 | 114 | 8.7 | 14.8 | 0.00 | 0.00 | 0.00 | 58 | 1010.1 |
| 20260506042322 | 51 | 78 | 8.7 | 13.9 | 0.00 | 0.00 | 0.00 | 58 | 1010.1 |
| 20260506041549 | 51 | 89 | 9.6 | 13.9 | 0.00 | 0.00 | 0.00 | 58 | 1010.0 |
| 20260506041048 | 51 | 96 | 8.7 | 13.0 | 0.00 | 0.00 | 0.00 | 58 | 1009.9 |
| 20260506040548 | 52 | 124 | 8.7 | 14.8 | 0.00 | 0.00 | 0.00 | 57 | 1009.8 |
| 20260506040045 | 52 | 101 | 8.7 | 14.8 | 0.00 | 0.00 | 0.00 | 57 | 1009.8 |
| 20260506035547 | 52 | 98 | 8.7 | 13.0 | 0.00 | 0.00 | 0.00 | 57 | 1009.8 |
| 20260506035046 | 52 | 100 | 8.7 | 15.6 | 0.00 | 0.00 | 0.00 | 57 | 1009.9 |
| 20260506034546 | 52 | 94 | 8.7 | 15.6 | 0.00 | 0.00 | 0.00 | 57 | 1009.8 |
| 20260506034044 | 52 | 97 | 8.7 | 13.9 | 0.00 | 0.00 | 0.00 | 57 | 1009.8 |
| 20260506033544 | 53 | 95 | 8.7 | 13.9 | 0.00 | 0.00 | 0.00 | 57 | 1009.7 |
| 20260506033043 | 53 | 99 | 7.8 | 12.2 | 0.00 | 0.00 | 0.00 | 57 | 1009.6 |
| 20260506032545 | 53 | 82 | 7.0 | 10.4 | 0.00 | 0.00 | 0.00 | 57 | 1009.7 |
| 20260506032044 | 53 | 43 | 7.0 | 11.3 | 0.00 | 0.00 | 0.00 | 57 | 1009.6 |
| 20260506031543 | 53 | 148 | 7.0 | 13.0 | 0.00 | 0.00 | 0.00 | 57 | 1009.6 |
| 20260506031044 | 53 | 97 | 6.1 | 13.0 | 0.00 | 0.00 | 0.00 | 58 | 1009.6 |
| 20260506030544 | 54 | 98 | 6.1 | 11.3 | 0.00 | 0.00 | 0.00 | 58 | 1009.5 |
| 20260506030041 | 54 | 53 | 6.1 | 11.3 | 0.00 | 0.00 | 0.00 | 56 | 1009.3 |
| 20260506025811 | 54 | 58 | 5.2 | 9.6 | 0.00 | 0.00 | 0.00 | 56 | 1009.3 |
| 20260506025308 | 55 | 49 | 5.2 | 9.6 | 0.00 | 0.00 | 0.00 | 55 | 1009.3 |
| 20260506024807 | 55 | 53 | 5.2 | 11.3 | 0.00 | 0.00 | 0.00 | 55 | 1009.1 |
| 20260506024036 | 55 | 40 | 6.1 | 11.3 | 0.00 | 0.00 | 0.00 | 54 | 1009.0 |
| 20260506023534 | 55 | 52 | 7.0 | 11.3 | 0.00 | 0.00 | 0.00 | 54 | 1009.0 |
| 20260506023038 | 56 | 44 | 7.8 | 14.8 | 0.00 | 0.00 | 0.00 | 54 | 1008.9 |
| 20260506023034 | 55 | 37 | 7.8 | 11.3 | 0.00 | 0.00 | 0.00 | 54 | 1008.9 |
| 20260506022032 | 56 | 38 | 7.8 | 14.8 | 0.00 | 0.00 | 0.00 | 54 | 1008.5 |
| 20260506021532 | 56 | 49 | 7.8 | 13.9 | 0.00 | 0.00 | 0.00 | 56 | 1008.4 |
| 20260506021031 | 55 | 52 | 7.0 | 13.9 | 0.00 | 0.00 | 0.00 | 57 | 1008.4 |
| 20260506020532 | 55 | 69 | 5.2 | 9.6 | 0.00 | 0.00 | 0.00 | 60 | 1008.8 |
| 20260506020033 | 55 | 34 | 5.2 | 9.6 | 0.00 | 0.00 | 0.00 | 62 | 1008.9 |
| 20260506015517 | 55 | 23 | 7.0 | 10.4 | 0.00 | 0.00 | 0.00 | 62 | 1008.8 |
| 20260506015016 | 55 | 29 | 7.8 | 12.2 | 0.00 | 0.00 | 0.00 | 61 | 1008.5 |
| 20260506014515 | 56 | 8 | 8.7 | 12.2 | 0.00 | 0.00 | 0.00 | 60 | 1008.3 |
| 20260506014011 | 56 | 11 | 9.6 | 14.8 | 0.00 | 0.00 | 0.00 | 60 | 1008.1 |
| 20260506013512 | 56 | 18 | 11.3 | 16.5 | 0.00 | 0.00 | 0.00 | 58 | 1007.8 |
| 20260506013010 | 57 | 16 | 12.2 | 20.0 | 0.00 | 0.00 | 0.00 | 55 | 1007.8 |
| 20260506012515 | 60 | 26 | 13.9 | 20.0 | 0.00 | 0.00 | 0.00 | 45 | 1007.6 |
| 20260506012510 | 58 | 27 | 13.9 | 20.0 | 0.00 | 0.00 | 0.00 | 50 | 1007.8 |
| 20260506011507 | 60 | 21 | 13.0 | 18.2 | 0.00 | 0.00 | 0.00 | 44 | 1007.5 |
| 20260506011008 | 60 | 23 | 12.2 | 18.2 | 0.00 | 0.00 | 0.00 | 43 | 1007.2 |
| 20260506010508 | 61 | 32 | 11.3 | 20.0 | 0.00 | 0.00 | 0.00 | 42 | 1006.9 |
| 20260506010005 | 62 | 41 | 10.4 | 20.0 | 0.00 | 0.00 | 0.00 | 41 | 1006.4 |
| 20260506005504 | 63 | 14 | 10.4 | 16.5 | 0.00 | 0.00 | 0.00 | 40 | 1006.1 |
| 20260506005234 | 63 | 58 | 11.3 | 17.4 | 0.00 | 0.00 | 0.00 | 40 | 1006.1 |
| 20260506004502 | 64 | 33 | 11.3 | 17.4 | 0.00 | 0.00 | 0.00 | 39 | 1005.8 |
| 20260506004005 | 65 | 58 | 9.6 | 14.8 | 0.00 | 0.00 | 0.00 | 38 | 1005.5 |
| 20260506004001 | 65 | 37 | 11.3 | 15.6 | 0.00 | 0.00 | 0.00 | 38 | 1005.5 |
| 20260506002959 | 66 | 85 | 9.6 | 18.2 | 0.00 | 0.00 | 0.00 | 37 | 1005.3 |
| 20260506002458 | 66 | 56 | 9.6 | 18.2 | 0.00 | 0.00 | 0.00 | 37 | 1005.2 |
| 20260506001957 | 66 | 79 | 7.8 | 13.9 | 0.00 | 0.00 | 0.00 | 37 | 1005.3 |
| 20260506001458 | 66 | 49 | 7.8 | 13.0 | 0.00 | 0.00 | 0.00 | 37 | 1005.2 |
| 20260506000956 | 66 | 75 | 7.8 | 15.6 | 0.00 | 0.00 | 0.00 | 37 | 1005.4 |
| 20260506000455 | 66 | 99 | 8.7 | 15.6 | 0.00 | 0.00 | 0.00 | 36 | 1005.4 |
| 20260506000227 | 66 | 44 | 8.7 | 13.9 | 0.00 | 0.00 | 0.00 | 36 | 1005.3 |
| 20260505235454 | 67 | 115 | 8.7 | 13.9 | 0.00 | 0.00 | 0.00 | 36 | 1005.1 |
| 20260505234955 | 67 | 75 | 9.6 | 16.5 | 0.00 | 0.00 | 0.00 | 35 | 1005.2 |
| 20260505234452 | 67 | 120 | 9.6 | 16.5 | 0.00 | 0.00 | 0.00 | 35 | 1005.2 |
| 20260505233951 | 67 | 106 | 9.6 | 16.5 | 0.00 | 0.00 | 0.00 | 35 | 1005.3 |
| 20260505233453 | 67 | 133 | 10.4 | 16.5 | 0.00 | 0.00 | 0.00 | 35 | 1005.3 |
| 20260505232949 | 67 | 86 | 10.4 | 16.5 | 0.00 | 0.00 | 0.00 | 35 | 1005.3 |
| 20260505232449 | 67 | 91 | 9.6 | 16.5 | 0.00 | 0.00 | 0.00 | 35 | 1005.3 |
| 20260505232221 | 67 | 131 | 7.8 | 14.8 | 0.00 | 0.00 | 0.00 | 35 | 1005.3 |
| 20260505231719 | 67 | 85 | 8.7 | 14.8 | 0.00 | 0.00 | 0.00 | 35 | 1005.3 |
| 20260505230948 | 67 | 101 | 9.6 | 14.8 | 0.00 | 0.00 | 0.00 | 35 | 1005.3 |
| 20260505230718 | 67 | 102 | 7.8 | 13.9 | 0.00 | 0.00 | 0.00 | 35 | 1005.4 |
| 20260505225948 | 67 | 113 | 7.0 | 13.0 | 0.00 | 0.00 | 0.00 | 35 | 1005.4 |
| 20260505225445 | 67 | 89 | 6.1 | 13.0 | 0.00 | 0.00 | 0.00 | 35 | 1005.4 |
| 20260505224945 | 67 | 54 | 6.1 | 12.2 | 0.00 | 0.00 | 0.00 | 35 | 1005.6 |
| 20260505224446 | 67 | 86 | 6.1 | 11.3 | 0.00 | 0.00 | 0.00 | 35 | 1005.6 |
| 20260505223945 | 67 | 80 | 6.1 | 11.3 | 0.00 | 0.00 | 0.00 | 35 | 1005.7 |
| 20260505223445 | 67 | 63 | 6.1 | 10.4 | 0.00 | 0.00 | 0.00 | 35 | 1005.8 |
| 20260505222950 | 67 | 47 | 6.1 | 9.6 | 0.00 | 0.00 | 0.00 | 35 | 1006.0 |
| 20260505222946 | 67 | 63 | 6.1 | 9.6 | 0.00 | 0.00 | 0.00 | 35 | 1005.9 |
| 20260505221946 | 67 | 39 | 6.1 | 9.6 | 0.00 | 0.00 | 0.00 | 35 | 1006.0 |
| 20260505221445 | 68 | 26 | 4.3 | 9.6 | 0.00 | 0.00 | 0.00 | 35 | 1006.0 |
| 20260505220943 | 67 | 48 | 4.3 | 7.0 | 0.00 | 0.00 | 0.00 | 35 | 1006.0 |
| 20260505220441 | 67 | 63 | 6.1 | 12.2 | 0.00 | 0.00 | 0.00 | 35 | 1006.1 |
| 20260505215943 | 67 | 42 | 6.1 | 12.2 | 0.00 | 0.00 | 0.00 | 34 | 1006.4 |
| 20260505215939 | 67 | 57 | 7.8 | 12.2 | 0.00 | 0.00 | 0.00 | 35 | 1006.3 |
| 20260505214937 | 68 | 55 | 4.3 | 8.7 | 0.00 | 0.00 | 0.00 | 34 | 1006.4 |
| 20260505214706 | 67 | 46 | 4.3 | 8.7 | 0.00 | 0.00 | 0.00 | 35 | 1006.4 |
| 20260505213935 | 67 | 34 | 5.2 | 8.7 | 0.00 | 0.00 | 0.00 | 36 | 1006.3 |
| 20260505213706 | 67 | 18 | 6.1 | 10.4 | 0.00 | 0.00 | 0.00 | 36 | 1006.5 |
| 20260505212936 | 66 | 18 | 7.0 | 11.3 | 0.00 | 0.00 | 0.00 | 36 | 1006.6 |
| 20260505212435 | 66 | 33 | 7.0 | 11.3 | 0.00 | 0.00 | 0.00 | 36 | 1006.6 |
| 20260505212207 | 66 | 25 | 6.1 | 11.3 | 0.00 | 0.00 | 0.00 | 35 | 1006.8 |
| 20260505211434 | 67 | 93 | 4.3 | 12.2 | 0.00 | 0.00 | 0.00 | 35 | 1006.8 |
| 20260505210933 | 68 | 60 | 4.3 | 12.2 | 0.00 | 0.00 | 0.00 | 35 | 1006.9 |
| 20260505210433 | 67 | 52 | 2.6 | 7.0 | 0.00 | 0.00 | 0.00 | 36 | 1007.0 |
| 20260505205933 | 67 | 0 | 2.6 | 7.0 | 0.00 | 0.00 | 0.00 | 36 | 1007.2 |
| 20260505205431 | 66 | 12 | 3.5 | 7.8 | 0.00 | 0.00 | 0.00 | 36 | 1007.3 |
| 20260505205201 | 66 | 57 | 4.3 | 8.7 | 0.00 | 0.00 | 0.00 | 37 | 1007.3 |
| 20260505204429 | 66 | 26 | 4.3 | 11.3 | 0.00 | 0.00 | 0.00 | 37 | 1007.4 |
| 20260505203927 | 66 | 41 | 2.6 | 11.3 | 0.00 | 0.00 | 0.00 | 37 | 1007.5 |
| 20260505203427 | 65 | 347 | 2.6 | 6.1 | 0.00 | 0.00 | 0.00 | 38 | 1007.6 |
| 20260505202925 | 65 | 13 | 4.3 | 7.8 | 0.00 | 0.00 | 0.00 | 37 | 1007.6 |
| 20260505202423 | 66 | 65 | 3.5 | 7.8 | 0.00 | 0.00 | 0.00 | 37 | 1007.7 |
| 20260505201923 | 66 | 36 | 2.6 | 7.0 | 0.00 | 0.00 | 0.00 | 38 | 1007.7 |
| 20260505201423 | 65 | 359 | 2.6 | 7.0 | 0.00 | 0.00 | 0.00 | 38 | 1007.7 |
| 20260505200923 | 65 | 22 | 4.3 | 11.3 | 0.00 | 0.00 | 0.00 | 38 | 1007.7 |
| 20260505200423 | 64 | 18 | 5.2 | 11.3 | 0.00 | 0.00 | 0.00 | 38 | 1007.7 |
| 20260505195922 | 65 | 0 | 4.3 | 8.7 | 0.00 | 0.00 | 0.00 | 38 | 1007.6 |
| 20260505195655 | 65 | 44 | 3.5 | 9.6 | 0.00 | 0.00 | 0.00 | 38 | 1007.6 |
| 20260505194923 | 64 | 343 | 4.3 | 10.4 | 0.00 | 0.00 | 0.00 | 39 | 1007.7 |
| 20260505194423 | 65 | 25 | 6.1 | 11.3 | 0.00 | 0.00 | 0.00 | 38 | 1007.6 |
| 20260505193917 | 65 | 55 | 4.3 | 11.3 | 0.00 | 0.00 | 0.00 | 38 | 1007.6 |
| 20260505193418 | 64 | 120 | 4.3 | 11.3 | 0.00 | 0.00 | 0.00 | 40 | 1007.7 |
| 20260505192916 | 64 | 4 | 7.0 | 12.2 | 0.00 | 0.00 | 0.00 | 40 | 1007.6 |
| 20260505192417 | 64 | 34 | 6.1 | 12.2 | 0.00 | 0.00 | 0.00 | 39 | 1007.8 |
| 20260505191918 | 64 | 58 | 6.1 | 11.3 | 0.00 | 0.00 | 0.00 | 40 | 1007.7 |
| 20260505191417 | 64 | 8 | 7.0 | 11.3 | 0.00 | 0.00 | 0.00 | 39 | 1007.7 |
| 20260505191149 | 64 | 11 | 6.1 | 12.2 | 0.00 | 0.00 | 0.00 | 40 | 1007.6 |
| 20260505190649 | 64 | 53 | 6.1 | 12.2 | 0.00 | 0.00 | 0.00 | 40 | 1007.7 |
| 20260505185918 | 63 | 25 | 6.1 | 10.4 | 0.00 | 0.00 | 0.00 | 40 | 1007.6 |
| 20260505185415 | 63 | 39 | 6.1 | 11.3 | 0.00 | 0.00 | 0.00 | 41 | 1007.6 |
| 20260505184914 | 63 | 1 | 7.0 | 13.0 | 0.00 | 0.00 | 0.00 | 41 | 1007.7 |
| 20260505184409 | 63 | 15 | 7.0 | 13.0 | 0.00 | 0.00 | 0.00 | 42 | 1007.8 |
| 20260505183909 | 62 | 10 | 7.8 | 12.2 | 0.00 | 0.00 | 0.00 | 43 | 1007.8 |
| 20260505183409 | 62 | 20 | 7.8 | 12.2 | 0.00 | 0.00 | 0.00 | 43 | 1007.9 |
| 20260505182909 | 61 | 35 | 7.0 | 11.3 | 0.00 | 0.00 | 0.00 | 43 | 1008.1 |
| 20260505182407 | 62 | 11 | 7.8 | 11.3 | 0.00 | 0.00 | 0.00 | 43 | 1008.3 |
| 20260505181907 | 61 | 18 | 7.8 | 11.3 | 0.00 | 0.00 | 0.00 | 43 | 1008.2 |
| 20260505181405 | 62 | 22 | 7.8 | 11.3 | 0.00 | 0.00 | 0.00 | 42 | 1008.1 |
| 20260505180905 | 62 | 29 | 7.8 | 12.2 | 0.00 | 0.00 | 0.00 | 43 | 1008.0 |
| 20260505180406 | 61 | 31 | 7.8 | 12.2 | 0.00 | 0.00 | 0.00 | 43 | 1008.1 |
| 20260505175905 | 61 | 13 | 7.8 | 13.0 | 0.00 | 0.00 | 0.00 | 42 | 1008.0 |
| 20260505175406 | 62 | 355 | 7.8 | 13.0 | 0.00 | 0.00 | 0.00 | 43 | 1008.1 |
| 20260505174905 | 62 | 11 | 7.8 | 13.9 | 0.00 | 0.00 | 0.00 | 42 | 1008.1 |
| 20260505174403 | 61 | 57 | 8.7 | 13.9 | 0.00 | 0.00 | 0.00 | 43 | 1008.2 |
| 20260505173903 | 62 | 34 | 7.8 | 13.9 | 0.00 | 0.00 | 0.00 | 42 | 1008.3 |
| 20260505173401 | 63 | 32 | 6.1 | 12.2 | 0.00 | 0.00 | 0.00 | 43 | 1008.2 |
| 20260505172900 | 60 | 12 | 6.1 | 11.3 | 0.00 | 0.00 | 0.00 | 45 | 1008.2 |
| 20260505172401 | 60 | 25 | 7.0 | 12.2 | 0.00 | 0.00 | 0.00 | 45 | 1008.4 |
| 20260505171901 | 60 | 3 | 7.0 | 12.2 | 0.00 | 0.00 | 0.00 | 46 | 1008.2 |
| 20260505171629 | 60 | 6 | 7.8 | 12.2 | 0.00 | 0.00 | 0.00 | 44 | 1008.1 |
| 20260505171131 | 60 | 9 | 7.8 | 13.0 | 0.00 | 0.00 | 0.00 | 44 | 1008.1 |
| 20260505170856 | 60 | 1 | 7.8 | 12.2 | 0.00 | 0.00 | 0.00 | 45 | 1008.1 |
| 20260505170128 | 60 | 14 | 7.8 | 13.0 | 0.00 | 0.00 | 0.00 | 46 | 1008.2 |
| 20260505165355 | 60 | 21 | 8.7 | 15.6 | 0.00 | 0.00 | 0.00 | 45 | 1008.3 |
| 20260505164852 | 60 | 359 | 8.7 | 15.6 | 0.00 | 0.00 | 0.00 | 45 | 1008.2 |
| 20260505164353 | 59 | 17 | 7.8 | 13.0 | 0.00 | 0.00 | 0.00 | 44 | 1008.2 |
| 20260505163853 | 59 | 20 | 7.8 | 13.9 | 0.00 | 0.00 | 0.00 | 46 | 1008.2 |
| 20260505163352 | 59 | 25 | 8.7 | 13.9 | 0.00 | 0.00 | 0.00 | 45 | 1008.1 |
| 20260505162851 | 59 | 27 | 8.7 | 13.9 | 0.00 | 0.00 | 0.00 | 45 | 1008.1 |
| 20260505162351 | 59 | 15 | 8.7 | 13.9 | 0.00 | 0.00 | 0.00 | 44 | 1008.2 |
| 20260505161850 | 58 | 1 | 8.7 | 13.0 | 0.00 | 0.00 | 0.00 | 45 | 1008.2 |
| 20260505161620 | 58 | 38 | 8.7 | 13.9 | 0.00 | 0.00 | 0.00 | 45 | 1008.4 |
| 20260505160848 | 57 | 356 | 9.6 | 13.9 | 0.00 | 0.00 | 0.00 | 46 | 1008.1 |
| 20260505160350 | 58 | 33 | 8.7 | 13.9 | 0.00 | 0.00 | 0.00 | 45 | 1008.2 |
| 20260505152842 | 58 | 352 | 9.6 | 16.5 | 0.00 | 0.00 | 0.00 | 44 | 1007.4 |
| 20260505152614 | 58 | 15 | 9.6 | 16.5 | 0.00 | 0.00 | 0.00 | 44 | 1007.4 |
| 20260505151841 | 57 | 31 | 9.6 | 15.6 | 0.00 | 0.00 | 0.00 | 44 | 1007.4 |
| 20260505151340 | 57 | 23 | 8.7 | 13.9 | 0.00 | 0.00 | 0.00 | 46 | 1007.3 |
| 20260505150838 | 56 | 353 | 9.6 | 13.9 | 0.00 | 0.00 | 0.00 | 47 | 1007.3 |
| 20260505150339 | 56 | 8 | 10.4 | 14.8 | 0.00 | 0.00 | 0.00 | 46 | 1007.2 |
| 20260505140555 | 54 | 0 | 10.4 | 14.8 | 0.00 | 0.00 | 0.00 | 50 | 1007.0 |
| 20260505124811 | 54 | 0 | 6.1 | 9.6 | 0.00 | 0.00 | 0.00 | 54 | 1005.4 |
| 20260505124310 | 54 | 1 | 6.1 | 10.4 | 0.00 | 0.00 | 0.00 | 55 | 1005.5 |
| 20260505123812 | 54 | 359 | 6.1 | 10.4 | 0.00 | 0.00 | 0.00 | 55 | 1005.2 |
| 20260505123310 | 54 | 357 | 7.0 | 11.3 | 0.00 | 0.00 | 0.00 | 55 | 1005.1 |
| 20260505122810 | 54 | 0 | 7.8 | 11.3 | 0.00 | 0.00 | 0.00 | 55 | 1004.9 |
| 20260505122309 | 54 | 348 | 8.7 | 12.2 | 0.00 | 0.00 | 0.00 | 55 | 1004.8 |
| 20260505121807 | 54 | 359 | 8.7 | 12.2 | 0.00 | 0.00 | 0.00 | 56 | 1004.7 |
| 20260505121306 | 54 | 359 | 8.7 | 13.0 | 0.00 | 0.00 | 0.00 | 56 | 1004.7 |
| 20260505120805 | 54 | 1 | 8.7 | 13.0 | 0.00 | 0.00 | 0.00 | 55 | 1004.6 |
| 20260505120304 | 55 | 2 | 7.8 | 13.0 | 0.00 | 0.00 | 0.00 | 55 | 1004.9 |
| 20260505115805 | 55 | 0 | 7.8 | 12.2 | 0.00 | 0.00 | 0.00 | 55 | 1004.9 |
| 20260505115304 | 55 | 15 | 8.7 | 13.9 | 0.00 | 0.00 | 0.00 | 55 | 1004.9 |
| 20260505115033 | 55 | 6 | 8.7 | 13.9 | 0.00 | 0.00 | 0.00 | 56 | 1004.7 |
| 20260505114302 | 56 | 354 | 9.6 | 14.8 | 0.00 | 0.00 | 0.00 | 56 | 1004.5 |
| 20260505114032 | 56 | 1 | 10.4 | 16.5 | 0.00 | 0.00 | 0.00 | 57 | 1004.3 |
| 20260505113300 | 56 | 0 | 9.6 | 16.5 | 0.00 | 0.00 | 0.00 | 56 | 1004.4 |
| 20260505112802 | 57 | 358 | 10.4 | 15.6 | 0.00 | 0.00 | 0.00 | 56 | 1004.2 |
| 20260505112758 | 56 | 359 | 9.6 | 13.9 | 0.00 | 0.00 | 0.00 | 56 | 1004.3 |
| 20260505111758 | 57 | 1 | 11.3 | 15.6 | 0.00 | 0.00 | 0.00 | 55 | 1004.4 |
| 20260505111258 | 57 | 1 | 11.3 | 18.2 | 0.00 | 0.00 | 0.00 | 55 | 1004.3 |
| 20260505110756 | 58 | 359 | 12.2 | 18.2 | 0.00 | 0.00 | 0.00 | 54 | 1004.2 |
| 20260505110254 | 58 | 359 | 11.3 | 18.2 | 0.00 | 0.00 | 0.00 | 52 | 1004.1 |
| 20260505101751 | 64 | 353 | 11.3 | 16.5 | 0.00 | 0.00 | 0.00 | 30 | 1003.8 |
| 20260505101248 | 65 | 326 | 11.3 | 18.2 | 0.00 | 0.00 | 0.00 | 28 | 1003.6 |
| 20260505100748 | 66 | 352 | 9.6 | 18.2 | 0.00 | 0.00 | 0.00 | 27 | 1003.4 |
| 20260505100249 | 66 | 359 | 7.8 | 17.4 | 0.00 | 0.00 | 0.00 | 27 | 1003.4 |
| 20260505095746 | 67 | 337 | 7.8 | 14.8 | 0.00 | 0.00 | 0.00 | 27 | 1003.3 |
| 20260505095246 | 68 | 333 | 10.4 | 24.3 | 0.00 | 0.00 | 0.00 | 25 | 1003.0 |
| 20260505094747 | 68 | 313 | 10.4 | 24.3 | 0.00 | 0.00 | 0.00 | 26 | 1002.6 |
| 20260505094511 | 68 | 347 | 8.7 | 15.6 | 0.00 | 0.00 | 0.00 | 25 | 1002.2 |
| 20260505093740 | 68 | 262 | 7.8 | 14.8 | 0.00 | 0.00 | 0.00 | 25 | 1002.0 |
| 20260505093241 | 68 | 264 | 7.8 | 16.5 | 0.00 | 0.00 | 0.00 | 25 | 1001.8 |
| 20260505092740 | 68 | 199 | 8.7 | 19.1 | 0.00 | 0.00 | 0.00 | 25 | 1001.6 |
| 20260505092239 | 68 | 257 | 9.6 | 19.1 | 0.00 | 0.00 | 0.00 | 25 | 1001.5 |
| 20260505091739 | 68 | 226 | 9.6 | 18.2 | 0.00 | 0.00 | 0.00 | 24 | 1001.5 |
| 20260505091236 | 68 | 249 | 7.8 | 14.8 | 0.00 | 0.00 | 0.00 | 24 | 1001.6 |
| 20260505091007 | 68 | 274 | 7.0 | 14.8 | 0.00 | 0.00 | 0.00 | 24 | 1001.7 |
| 20260505090842 | 68 | 237 | 6.1 | 13.0 | 0.00 | 0.00 | 0.00 | 24 | 1001.9 |
| 20260505085732 | 69 | 165 | 6.1 | 11.3 | 0.00 | 0.00 | 0.00 | 24 | 1001.9 |
| 20260505085232 | 69 | 257 | 7.0 | 13.0 | 0.00 | 0.00 | 0.00 | 24 | 1001.8 |
| 20260505085003 | 69 | 250 | 7.0 | 13.0 | 0.00 | 0.00 | 0.00 | 24 | 1001.8 |
| 20260505084457 | 69 | 236 | 7.0 | 11.3 | 0.00 | 0.00 | 0.00 | 24 | 1001.7 |
| 20260505083957 | 69 | 230 | 7.0 | 11.3 | 0.00 | 0.00 | 0.00 | 24 | 1001.7 |
| 20260505083227 | 69 | 234 | 7.0 | 13.0 | 0.00 | 0.00 | 0.00 | 24 | 1001.6 |
| 20260505082727 | 69 | 214 | 6.1 | 13.0 | 0.00 | 0.00 | 0.00 | 23 | 1001.6 |
| 20260505082225 | 69 | 246 | 7.0 | 12.2 | 0.00 | 0.00 | 0.00 | 23 | 1001.5 |
| 20260505081956 | 70 | 244 | 7.8 | 13.9 | 0.00 | 0.00 | 0.00 | 23 | 1001.5 |
| 20260505081225 | 70 | 198 | 7.8 | 13.9 | 0.00 | 0.00 | 0.00 | 23 | 1001.5 |
| 20260505080955 | 70 | 340 | 7.8 | 13.9 | 0.00 | 0.00 | 0.00 | 22 | 1001.6 |
| 20260505080224 | 71 | 260 | 7.8 | 13.9 | 0.00 | 0.00 | 0.00 | 22 | 1001.7 |
| 20260505075721 | 71 | 249 | 6.1 | 12.2 | 0.00 | 0.00 | 0.00 | 22 | 1001.7 |
| 20260505075219 | 71 | 306 | 5.2 | 12.2 | 0.00 | 0.00 | 0.00 | 22 | 1001.9 |
| 20260505074719 | 71 | 250 | 6.1 | 12.2 | 0.00 | 0.00 | 0.00 | 22 | 1001.8 |
| 20260505074218 | 71 | 249 | 6.1 | 13.0 | 0.00 | 0.00 | 0.00 | 22 | 1001.9 |
| 20260505073718 | 71 | 281 | 6.1 | 13.9 | 0.00 | 0.00 | 0.00 | 22 | 1002.0 |
| 20260505073218 | 71 | 257 | 6.1 | 13.9 | 0.00 | 0.00 | 0.00 | 22 | 1002.0 |
| 20260505072716 | 71 | 257 | 7.0 | 11.3 | 0.00 | 0.00 | 0.00 | 22 | 1002.1 |
| 20260505072216 | 71 | 251 | 7.0 | 12.2 | 0.00 | 0.00 | 0.00 | 22 | 1002.0 |
| 20260505071948 | 71 | 196 | 6.1 | 12.2 | 0.00 | 0.00 | 0.00 | 22 | 1002.2 |
| 20260505071214 | 71 | 240 | 5.2 | 12.2 | 0.00 | 0.00 | 0.00 | 22 | 1002.2 |
| 20260505070710 | 71 | 233 | 5.2 | 10.4 | 0.00 | 0.00 | 0.00 | 22 | 1002.2 |
| 20260505070205 | 71 | 240 | 5.2 | 10.4 | 0.00 | 0.00 | 0.00 | 22 | 1002.2 |
| 20260505065937 | 72 | 233 | 6.1 | 12.2 | 0.00 | 0.00 | 0.00 | 22 | 1002.3 |
| 20260505065204 | 72 | 267 | 7.0 | 12.2 | 0.00 | 0.00 | 0.00 | 21 | 1002.2 |
| 20260505064704 | 72 | 233 | 7.0 | 14.8 | 0.00 | 0.00 | 0.00 | 21 | 1002.3 |
| 20260505064204 | 72 | 233 | 7.0 | 14.8 | 0.00 | 0.00 | 0.00 | 21 | 1002.3 |
| 20260505063700 | 72 | 249 | 7.0 | 13.9 | 0.00 | 0.00 | 0.00 | 21 | 1002.2 |
| 20260505063159 | 72 | 248 | 7.8 | 13.9 | 0.00 | 0.00 | 0.00 | 21 | 1002.1 |
| 20260505062700 | 72 | 236 | 7.8 | 12.2 | 0.00 | 0.00 | 0.00 | 21 | 1002.1 |
| 20260505062159 | 72 | 238 | 7.0 | 12.2 | 0.00 | 0.00 | 0.00 | 21 | 1002.2 |
| 20260505061659 | 72 | 249 | 7.0 | 13.0 | 0.00 | 0.00 | 0.00 | 21 | 1002.2 |
| 20260505061429 | 73 | 221 | 7.0 | 13.0 | 0.00 | 0.00 | 0.00 | 21 | 1002.3 |
| 20260505060658 | 73 | 211 | 7.0 | 13.0 | 0.00 | 0.00 | 0.00 | 21 | 1002.3 |
| 20260505060159 | 73 | 245 | 7.0 | 13.0 | 0.00 | 0.00 | 0.00 | 21 | 1002.3 |
| 20260505055700 | 73 | 247 | 6.1 | 12.2 | 0.00 | 0.00 | 0.00 | 21 | 1002.3 |
| 20260505055656 | 73 | 245 | 5.2 | 11.3 | 0.00 | 0.00 | 0.00 | 21 | 1002.3 |
| 20260505054925 | 73 | 226 | 7.0 | 12.2 | 0.00 | 0.00 | 0.00 | 21 | 1002.3 |